| time (UTC) | temp F | wind direction | speed knots | gust knots | rain 1hr in | rain 24hr in | rain mn in | humidity % | barometer mb |
| 20260507062956 | 53 | 166 | 1.7 | 3.5 | 0.00 | 0.00 | 0.00 | 93 | 1021.3 |
| 20260507062452 | 53 | 168 | 2.6 | 5.2 | 0.00 | 0.00 | 0.00 | 93 | 1021.3 |
| 20260507061950 | 53 | 114 | 0.0 | 4.3 | 0.00 | 0.00 | 0.00 | 93 | 1021.3 |
| 20260507061448 | 53 | 175 | 2.6 | 4.3 | 0.00 | 0.00 | 0.00 | 93 | 1021.5 |
| 20260507060946 | 53 | 180 | 3.5 | 4.3 | 0.00 | 0.00 | 0.00 | 93 | 1021.4 |
| 20260507060442 | 53 | 209 | 2.6 | 3.5 | 0.00 | 0.00 | 0.00 | 92 | 1021.4 |
| 20260507055939 | 53 | 175 | 1.7 | 2.6 | 0.00 | 0.00 | 0.00 | 92 | 1021.5 |
| 20260507055434 | 53 | 143 | 1.7 | 2.6 | 0.00 | 0.00 | 0.00 | 92 | 1021.5 |
| 20260507054931 | 53 | 182 | 3.5 | 4.3 | 0.00 | 0.00 | 0.00 | 91 | 1021.3 |
| 20260507054427 | 53 | 176 | 1.7 | 3.5 | 0.00 | 0.00 | 0.00 | 91 | 1021.4 |
| 20260507053925 | 54 | 123 | 0.9 | 4.3 | 0.00 | 0.00 | 0.00 | 91 | 1021.3 |
| 20260507053422 | 53 | 154 | 0.9 | 4.3 | 0.00 | 0.00 | 0.00 | 91 | 1021.6 |
| 20260507052921 | 54 | 249 | 2.6 | 2.6 | 0.00 | 0.00 | 0.00 | 91 | 1021.5 |
| 20260507052418 | 54 | 177 | 2.6 | 3.5 | 0.00 | 0.00 | 0.00 | 91 | 1021.4 |
| 20260507051915 | 54 | 204 | 6.1 | 7.0 | 0.00 | 0.00 | 0.00 | 90 | 1021.4 |
| 20260507051413 | 54 | 194 | 2.6 | 5.2 | 0.00 | 0.00 | 0.00 | 90 | 1021.5 |
| 20260507050909 | 54 | 180 | 2.6 | 5.2 | 0.00 | 0.00 | 0.00 | 90 | 1021.4 |
| 20260507050406 | 54 | 135 | 2.6 | 5.2 | 0.00 | 0.00 | 0.00 | 90 | 1021.2 |
| 20260507045902 | 54 | 161 | 1.7 | 4.3 | 0.00 | 0.00 | 0.00 | 90 | 1021.3 |
| 20260507045359 | 54 | 199 | 4.3 | 7.0 | 0.00 | 0.00 | 0.00 | 90 | 1021.3 |
| 20260507044857 | 54 | 161 | 1.7 | 4.3 | 0.00 | 0.00 | 0.00 | 89 | 1021.6 |
| 20260507044353 | 54 | 135 | 1.7 | 4.3 | 0.00 | 0.00 | 0.00 | 89 | 1021.3 |
| 20260507043849 | 54 | 153 | 2.6 | 3.5 | 0.00 | 0.00 | 0.00 | 89 | 1021.4 |
| 20260507043346 | 54 | 160 | 0.9 | 3.5 | 0.00 | 0.00 | 0.00 | 89 | 1021.3 |
| 20260507042842 | 54 | 109 | 0.9 | 3.5 | 0.00 | 0.00 | 0.00 | 89 | 1021.4 |
| 20260507042338 | 55 | 157 | 1.7 | 3.5 | 0.00 | 0.00 | 0.00 | 88 | 1021.3 |
| 20260507041835 | 55 | 105 | 0.9 | 1.7 | 0.00 | 0.00 | 0.00 | 88 | 1021.2 |
| 20260507041331 | 55 | 174 | 2.6 | 2.6 | 0.00 | 0.00 | 0.00 | 88 | 1021.3 |
| 20260507040829 | 55 | 166 | 1.7 | 2.6 | 0.00 | 0.00 | 0.00 | 88 | 1021.2 |
| 20260507040325 | 55 | 225 | 3.5 | 3.5 | 0.00 | 0.00 | 0.00 | 88 | 1021.2 |
| 20260507035821 | 55 | 180 | 2.6 | 3.5 | 0.00 | 0.00 | 0.00 | 88 | 1021.1 |
| 20260507035316 | 55 | 154 | 0.9 | 3.5 | 0.00 | 0.00 | 0.00 | 87 | 1021.1 |
| 20260507034814 | 55 | 165 | 1.7 | 2.6 | 0.00 | 0.00 | 0.00 | 87 | 1021.2 |
| 20260507034311 | 55 | 180 | 2.6 | 2.6 | 0.00 | 0.00 | 0.00 | 87 | 1021.1 |
| 20260507033809 | 55 | 166 | 1.7 | 2.6 | 0.00 | 0.00 | 0.00 | 87 | 1021.2 |
| 20260507033306 | 55 | 186 | 2.6 | 3.5 | 0.00 | 0.00 | 0.00 | 86 | 1021.1 |
| 20260507032803 | 55 | 180 | 0.0 | 1.7 | 0.00 | 0.00 | 0.00 | 86 | 1021.1 |
| 20260507032259 | 55 | 90 | 0.0 | 1.7 | 0.00 | 0.00 | 0.00 | 86 | 1021.2 |
| 20260507031756 | 55 | 154 | 1.7 | 3.5 | 0.00 | 0.00 | 0.00 | 86 | 1020.8 |
| 20260507031253 | 56 | 152 | 1.7 | 2.6 | 0.00 | 0.00 | 0.00 | 85 | 1020.8 |
| 20260507030749 | 56 | 157 | 0.0 | 1.7 | 0.00 | 0.00 | 0.00 | 85 | 1020.9 |
| 20260507030247 | 56 | 189 | 2.6 | 3.5 | 0.00 | 0.00 | 0.00 | 85 | 1020.9 |
| 20260507025744 | 56 | 189 | 1.7 | 2.6 | 0.00 | 0.00 | 0.00 | 84 | 1020.7 |
| 20260507025241 | 56 | 165 | 0.0 | 4.3 | 0.00 | 0.00 | 0.00 | 84 | 1020.6 |
| 20260507024739 | 56 | 154 | 0.0 | 2.6 | 0.00 | 0.00 | 0.00 | 84 | 1020.7 |
| 20260507024236 | 56 | 185 | 0.9 | 1.7 | 0.00 | 0.00 | 0.00 | 84 | 1020.7 |
| 20260507023731 | 56 | 186 | 2.6 | 2.6 | 0.00 | 0.00 | 0.00 | 83 | 1020.6 |
| 20260507023229 | 56 | 162 | 0.9 | 3.5 | 0.00 | 0.00 | 0.00 | 83 | 1020.6 |
| 20260507022726 | 56 | 99 | 0.0 | 2.6 | 0.00 | 0.00 | 0.00 | 83 | 1020.6 |
| 20260507022222 | 56 | 189 | 2.6 | 2.6 | 0.00 | 0.00 | 0.00 | 83 | 1020.6 |
| 20260507021718 | 56 | 140 | 1.7 | 3.5 | 0.00 | 0.00 | 0.00 | 83 | 1020.5 |
| 20260507021214 | 56 | 94 | 1.7 | 2.6 | 0.00 | 0.00 | 0.00 | 83 | 1020.6 |
| 20260507020713 | 57 | 166 | 0.9 | 1.7 | 0.00 | 0.00 | 0.00 | 83 | 1020.5 |
| 20260507020208 | 57 | 189 | 3.5 | 3.5 | 0.00 | 0.00 | 0.00 | 83 | 1020.4 |
| 20260507015707 | 57 | 169 | 0.9 | 4.3 | 0.00 | 0.00 | 0.00 | 83 | 1020.7 |
| 20260507015203 | 57 | 185 | 2.6 | 2.6 | 0.00 | 0.00 | 0.00 | 83 | 1020.6 |
| 20260507014700 | 57 | 180 | 3.5 | 3.5 | 0.00 | 0.00 | 0.00 | 83 | 1020.6 |
| 20260507014156 | 57 | 183 | 3.5 | 3.5 | 0.00 | 0.00 | 0.00 | 83 | 1020.6 |
| 20260507013653 | 57 | 225 | 0.0 | 2.6 | 0.00 | 0.00 | 0.00 | 83 | 1020.7 |
| 20260507013150 | 57 | 114 | 0.0 | 2.6 | 0.00 | 0.00 | 0.00 | 83 | 1020.7 |
| 20260507012648 | 57 | 173 | 0.9 | 1.7 | 0.00 | 0.00 | 0.00 | 83 | 1020.5 |
| 20260507012143 | 57 | 131 | 0.0 | 2.6 | 0.00 | 0.00 | 0.00 | 83 | 1020.7 |
| 20260507011641 | 57 | 145 | 0.0 | 3.5 | 0.00 | 0.00 | 0.00 | 84 | 1020.6 |
| 20260507011137 | 56 | 199 | 3.5 | 3.5 | 0.00 | 0.00 | 0.00 | 84 | 1020.6 |
| 20260507010632 | 56 | 180 | 0.0 | 2.6 | 0.00 | 0.00 | 0.00 | 84 | 1020.6 |
| 20260507010128 | 56 | 135 | 0.0 | 4.3 | 0.00 | 0.00 | 0.00 | 84 | 1020.7 |
| 20260507005626 | 56 | 190 | 1.7 | 4.3 | 0.00 | 0.00 | 0.00 | 84 | 1020.7 |
| 20260507005121 | 56 | 193 | 2.6 | 3.5 | 0.00 | 0.00 | 0.00 | 84 | 1020.7 |
| 20260507004619 | 56 | 182 | 2.6 | 3.5 | 0.00 | 0.00 | 0.00 | 84 | 1020.7 |
| 20260507004116 | 56 | 192 | 1.7 | 5.2 | 0.00 | 0.00 | 0.00 | 85 | 1020.9 |
| 20260507003612 | 56 | 213 | 3.5 | 4.3 | 0.00 | 0.00 | 0.00 | 84 | 1020.7 |
| 20260507003107 | 56 | 194 | 2.6 | 4.3 | 0.00 | 0.00 | 0.00 | 84 | 1020.9 |
| 20260507002604 | 56 | 183 | 1.7 | 3.5 | 0.00 | 0.00 | 0.00 | 84 | 1020.9 |
| 20260507002059 | 56 | 189 | 2.6 | 6.1 | 0.00 | 0.00 | 0.00 | 84 | 1020.7 |
| 20260507001557 | 56 | 198 | 1.7 | 7.0 | 0.00 | 0.00 | 0.00 | 84 | 1020.7 |
| 20260507001054 | 56 | 212 | 2.6 | 3.5 | 0.00 | 0.00 | 0.00 | 85 | 1020.7 |
| 20260507000550 | 56 | 177 | 1.7 | 3.5 | 0.00 | 0.00 | 0.00 | 86 | 1020.7 |
| 20260507000046 | 56 | 101 | 1.7 | 4.3 | 0.00 | 0.00 | 0.00 | 86 | 1020.7 |
| 20260506235543 | 56 | 196 | 4.3 | 5.2 | 0.00 | 0.00 | 0.00 | 86 | 1020.7 |
| 20260506235038 | 55 | 190 | 3.5 | 6.1 | 0.00 | 0.00 | 0.00 | 86 | 1020.9 |
| 20260506234536 | 56 | 180 | 4.3 | 5.2 | 0.00 | 0.00 | 0.00 | 86 | 1020.8 |
| 20260506234033 | 56 | 161 | 1.7 | 5.2 | 0.00 | 0.00 | 0.00 | 86 | 1020.9 |
| 20260506233530 | 55 | 201 | 0.0 | 4.3 | 0.00 | 0.00 | 0.00 | 86 | 1020.9 |
| 20260506233027 | 55 | 205 | 5.2 | 5.2 | 0.00 | 0.00 | 0.00 | 86 | 1020.8 |
| 20260506232523 | 56 | 188 | 2.6 | 5.2 | 0.00 | 0.00 | 0.00 | 86 | 1020.8 |
| 20260506232019 | 56 | 222 | 1.7 | 6.1 | 0.00 | 0.00 | 0.00 | 85 | 1020.9 |
| 20260506231516 | 56 | 191 | 3.5 | 4.3 | 0.00 | 0.00 | 0.00 | 85 | 1020.9 |
| 20260506231014 | 55 | 210 | 4.3 | 5.2 | 0.00 | 0.00 | 0.00 | 85 | 1020.8 |
| 20260506230510 | 55 | 214 | 3.5 | 3.5 | 0.00 | 0.00 | 0.00 | 85 | 1020.9 |
| 20260506230008 | 55 | 185 | 2.6 | 5.2 | 0.00 | 0.00 | 0.00 | 86 | 1020.8 |
| 20260506225505 | 56 | 190 | 3.5 | 3.5 | 0.00 | 0.00 | 0.00 | 86 | 1021.0 |
| 20260506225001 | 56 | 191 | 3.5 | 3.5 | 0.00 | 0.00 | 0.00 | 86 | 1021.0 |
| 20260506224458 | 56 | 203 | 3.5 | 3.5 | 0.00 | 0.00 | 0.00 | 85 | 1020.8 |
| 20260506223954 | 55 | 186 | 2.6 | 3.5 | 0.00 | 0.00 | 0.00 | 85 | 1020.9 |
| 20260506223450 | 55 | 198 | 4.3 | 5.2 | 0.00 | 0.00 | 0.00 | 85 | 1021.1 |
| 20260506222947 | 55 | 221 | 5.2 | 7.8 | 0.00 | 0.00 | 0.00 | 85 | 1021.0 |
| 20260506222444 | 55 | 234 | 8.7 | 11.3 | 0.00 | 0.00 | 0.00 | 85 | 1021.1 |
| 20260506221941 | 55 | 240 | 6.1 | 12.2 | 0.00 | 0.00 | 0.00 | 85 | 1021.2 |
| 20260506221438 | 55 | 223 | 3.5 | 7.0 | 0.00 | 0.00 | 0.00 | 85 | 1021.1 |
| 20260506220936 | 56 | 230 | 2.6 | 5.2 | 0.00 | 0.00 | 0.00 | 84 | 1021.0 |
| 20260506220431 | 56 | 251 | 3.5 | 4.3 | 0.00 | 0.00 | 0.00 | 84 | 1021.2 |
| 20260506215928 | 56 | 185 | 2.6 | 3.5 | 0.00 | 0.00 | 0.00 | 84 | 1021.2 |
| 20260506215424 | 56 | 232 | 4.3 | 5.2 | 0.00 | 0.00 | 0.00 | 83 | 1020.9 |
| 20260506214920 | 56 | 202 | 4.3 | 5.2 | 0.00 | 0.00 | 0.00 | 83 | 1020.9 |
| 20260506214417 | 56 | 181 | 4.3 | 7.0 | 0.00 | 0.00 | 0.00 | 83 | 1021.1 |
| 20260506213915 | 56 | 199 | 4.3 | 6.1 | 0.00 | 0.00 | 0.00 | 83 | 1021.1 |
| 20260506213412 | 56 | 216 | 4.3 | 7.0 | 0.00 | 0.00 | 0.00 | 83 | 1021.0 |
| 20260506212909 | 56 | 198 | 6.1 | 10.4 | 0.00 | 0.00 | 0.00 | 84 | 1021.3 |
| 20260506212405 | 55 | 206 | 10.4 | 10.4 | 0.00 | 0.00 | 0.00 | 84 | 1021.2 |
| 20260506211900 | 56 | 205 | 4.3 | 6.1 | 0.00 | 0.00 | 0.00 | 85 | 1021.2 |
| 20260506211356 | 55 | 214 | 5.2 | 7.8 | 0.00 | 0.00 | 0.00 | 84 | 1021.2 |
| 20260506210854 | 55 | 199 | 7.8 | 7.8 | 0.00 | 0.00 | 0.00 | 84 | 1021.1 |
| 20260506210350 | 55 | 200 | 7.0 | 8.7 | 0.00 | 0.00 | 0.00 | 84 | 1021.3 |
| 20260506205848 | 55 | 210 | 7.0 | 7.8 | 0.00 | 0.00 | 0.00 | 84 | 1021.2 |
| 20260506205343 | 55 | 195 | 5.2 | 7.8 | 0.00 | 0.00 | 0.00 | 83 | 1021.3 |
| 20260506204840 | 55 | 233 | 8.7 | 9.6 | 0.00 | 0.00 | 0.00 | 83 | 1021.1 |
| 20260506204338 | 55 | 209 | 9.6 | 10.4 | 0.00 | 0.00 | 0.00 | 84 | 1020.9 |
| 20260506203835 | 55 | 203 | 7.8 | 9.6 | 0.00 | 0.00 | 0.00 | 84 | 1021.1 |
| 20260506203332 | 55 | 216 | 6.1 | 9.6 | 0.00 | 0.00 | 0.00 | 84 | 1021.0 |
| 20260506202829 | 55 | 223 | 8.7 | 8.7 | 0.00 | 0.00 | 0.00 | 84 | 1021.1 |
| 20260506202326 | 55 | 222 | 4.3 | 6.1 | 0.00 | 0.00 | 0.00 | 85 | 1021.2 |
| 20260506201822 | 55 | 233 | 7.0 | 9.6 | 0.00 | 0.00 | 0.00 | 85 | 1021.0 |
| 20260506201320 | 55 | 248 | 7.0 | 8.7 | 0.00 | 0.00 | 0.00 | 85 | 1021.1 |
| 20260506200817 | 55 | 232 | 4.3 | 7.8 | 0.00 | 0.00 | 0.00 | 85 | 1021.2 |
| 20260506200313 | 55 | 225 | 4.3 | 7.0 | 0.00 | 0.00 | 0.00 | 85 | 1021.1 |
| 20260506195809 | 55 | 190 | 2.6 | 5.2 | 0.00 | 0.00 | 0.00 | 86 | 1021.1 |
| 20260506195306 | 55 | 217 | 4.3 | 6.1 | 0.00 | 0.00 | 0.00 | 85 | 1021.0 |
| 20260506194804 | 55 | 228 | 6.1 | 8.7 | 0.00 | 0.00 | 0.00 | 84 | 1021.1 |
| 20260506194300 | 55 | 214 | 5.2 | 7.8 | 0.00 | 0.00 | 0.00 | 85 | 1020.9 |
| 20260506193758 | 54 | 232 | 7.8 | 11.3 | 0.00 | 0.00 | 0.00 | 86 | 1020.9 |
| 20260506193254 | 55 | 245 | 9.6 | 9.6 | 0.00 | 0.00 | 0.00 | 86 | 1021.1 |
| 20260506192750 | 55 | 233 | 4.3 | 7.8 | 0.00 | 0.00 | 0.00 | 86 | 1020.9 |
| 20260506192247 | 55 | 212 | 3.5 | 5.2 | 0.00 | 0.00 | 0.00 | 87 | 1020.8 |
| 20260506191744 | 55 | 172 | 2.6 | 5.2 | 0.00 | 0.00 | 0.00 | 87 | 1020.8 |
| 20260506191240 | 55 | 174 | 2.6 | 4.3 | 0.00 | 0.00 | 0.00 | 88 | 1020.8 |
| 20260506190738 | 55 | 206 | 3.5 | 3.5 | 0.00 | 0.00 | 0.00 | 89 | 1020.7 |
| 20260506190234 | 55 | 176 | 1.7 | 3.5 | 0.00 | 0.00 | 0.00 | 90 | 1020.7 |
| 20260506185731 | 54 | 208 | 1.7 | 3.5 | 0.00 | 0.00 | 0.00 | 90 | 1020.6 |
| 20260506185227 | 54 | 127 | 1.7 | 3.5 | 0.00 | 0.00 | 0.00 | 91 | 1020.7 |
| 20260506184725 | 54 | 107 | 1.7 | 2.6 | 0.00 | 0.00 | 0.00 | 92 | 1020.7 |
| 20260506184222 | 54 | 187 | 1.7 | 2.6 | 0.00 | 0.00 | 0.00 | 92 | 1020.8 |
| 20260506183719 | 54 | 126 | 0.9 | 2.6 | 0.00 | 0.00 | 0.00 | 93 | 1021.0 |
| 20260506183214 | 53 | 197 | 0.0 | 2.6 | 0.00 | 0.00 | 0.00 | 93 | 1020.8 |
| 20260506182712 | 54 | 189 | 1.7 | 2.6 | 0.00 | 0.00 | 0.00 | 93 | 1020.9 |
| 20260506182209 | 53 | 131 | 1.7 | 2.6 | 0.00 | 0.00 | 0.00 | 94 | 1020.8 |
| 20260506181707 | 53 | 195 | 1.7 | 3.5 | 0.00 | 0.00 | 0.00 | 94 | 1021.0 |
| 20260506181204 | 53 | 168 | 1.7 | 4.3 | 0.00 | 0.00 | 0.00 | 94 | 1020.9 |
| 20260506180701 | 52 | 194 | 4.3 | 6.1 | 0.00 | 0.00 | 0.00 | 94 | 1020.8 |
| 20260506180157 | 52 | 210 | 1.7 | 5.2 | 0.00 | 0.00 | 0.00 | 95 | 1020.6 |
| 20260506175654 | 52 | 183 | 2.6 | 5.2 | 0.00 | 0.00 | 0.00 | 95 | 1020.4 |
| 20260506175150 | 52 | 180 | 3.5 | 7.0 | 0.00 | 0.00 | 0.00 | 95 | 1020.4 |
| 20260506174643 | 52 | 179 | 4.3 | 7.0 | 0.00 | 0.00 | 0.00 | 96 | 1020.5 |
| 20260506174139 | 52 | 208 | 6.1 | 7.8 | 0.00 | 0.00 | 0.00 | 96 | 1020.4 |
| 20260506173638 | 52 | 206 | 7.0 | 7.8 | 0.00 | 0.00 | 0.00 | 96 | 1020.4 |
| 20260506173134 | 52 | 210 | 4.3 | 5.2 | 0.00 | 0.00 | 0.00 | 96 | 1020.5 |
| 20260506172631 | 53 | 204 | 4.3 | 6.1 | 0.00 | 0.00 | 0.00 | 96 | 1020.5 |
| 20260506172127 | 53 | 103 | 0.0 | 1.7 | 0.00 | 0.00 | 0.00 | 97 | 1020.6 |
| 20260506171625 | 53 | 127 | 1.7 | 3.5 | 0.00 | 0.00 | 0.00 | 97 | 1020.4 |
| 20260506171123 | 53 | 105 | 0.0 | 2.6 | 0.00 | 0.00 | 0.00 | 97 | 1020.5 |
| 20260506170620 | 52 | 98 | 0.9 | 3.5 | 0.00 | 0.00 | 0.00 | 97 | 1020.7 |
| 20260506170117 | 53 | 187 | 1.7 | 2.6 | 0.00 | 0.00 | 0.00 | 97 | 1020.6 |
| 20260506165615 | 52 | 114 | 0.9 | 1.7 | 0.00 | 0.00 | 0.00 | 97 | 1020.5 |
| 20260506165111 | 52 | 156 | 1.7 | 3.5 | 0.00 | 0.00 | 0.00 | 97 | 1020.6 |
| 20260506164608 | 52 | 165 | 1.7 | 4.3 | 0.00 | 0.00 | 0.00 | 97 | 1020.6 |
| 20260506164106 | 52 | 194 | 3.5 | 5.2 | 0.00 | 0.00 | 0.00 | 97 | 1020.5 |
| 20260506163601 | 52 | 113 | 1.7 | 2.6 | 0.00 | 0.00 | 0.00 | 97 | 1020.5 |
| 20260506163057 | 52 | 157 | 1.7 | 4.3 | 0.00 | 0.00 | 0.00 | 97 | 1020.5 |
| 20260506162554 | 52 | 180 | 2.6 | 4.3 | 0.00 | 0.00 | 0.00 | 97 | 1020.3 |
| 20260506162051 | 52 | 164 | 4.3 | 4.3 | 0.00 | 0.00 | 0.00 | 97 | 1020.4 |
| 20260506161549 | 52 | 159 | 1.7 | 3.5 | 0.00 | 0.00 | 0.00 | 97 | 1020.2 |
| 20260506161045 | 52 | 146 | 1.7 | 3.5 | 0.00 | 0.00 | 0.00 | 97 | 1020.0 |
| 20260506160543 | 52 | 160 | 1.7 | 6.1 | 0.00 | 0.00 | 0.00 | 97 | 1019.8 |
| 20260506160040 | 52 | 117 | 1.7 | 4.3 | 0.00 | 0.00 | 0.00 | 97 | 1019.7 |
| 20260506155538 | 52 | 139 | 0.0 | 6.1 | 0.00 | 0.00 | 0.00 | 97 | 1020.0 |
| 20260506153709 | 52 | 170 | 1.7 | 3.5 | 0.00 | 0.00 | 0.00 | 97 | 1020.2 |
| 20260506153207 | 52 | 172 | 1.7 | 3.5 | 0.00 | 0.00 | 0.00 | 97 | 1020.5 |
| 20260506152703 | 52 | 120 | 0.0 | 4.3 | 0.00 | 0.00 | 0.00 | 97 | 1020.3 |
| 20260506152200 | 52 | 103 | 0.9 | 4.3 | 0.00 | 0.00 | 0.00 | 97 | 1020.4 |
| 20260506151700 | 52 | 126 | 0.0 | 2.6 | 0.00 | 0.00 | 0.00 | 97 | 1020.2 |
| 20260506151156 | 52 | 132 | 1.7 | 5.2 | 0.00 | 0.00 | 0.00 | 97 | 1020.2 |
| 20260506150653 | 52 | 168 | 1.7 | 7.8 | 0.00 | 0.00 | 0.00 | 97 | 1020.1 |
| 20260506150150 | 52 | 161 | 1.7 | 5.2 | 0.02 | 0.00 | 0.00 | 97 | 1019.7 |
| 20260506145646 | 52 | 157 | 0.0 | 5.2 | 0.02 | 0.00 | 0.00 | 97 | 1019.9 |
| 20260506145143 | 52 | 94 | 1.7 | 3.5 | 0.00 | 0.00 | 0.00 | 96 | 1020.0 |
| 20260506144641 | 52 | 182 | 2.6 | 5.2 | 0.00 | 0.00 | 0.00 | 96 | 1020.1 |
| 20260506144137 | 52 | 200 | 2.6 | 4.3 | 0.00 | 0.00 | 0.00 | 96 | 1020.0 |
| 20260506143635 | 52 | 232 | 2.6 | 4.3 | 0.00 | 0.00 | 0.00 | 96 | 1020.2 |
| 20260506143133 | 52 | 251 | 1.7 | 2.6 | 0.00 | 0.00 | 0.00 | 96 | 1020.4 |
| 20260506142631 | 52 | 248 | 0.0 | 1.7 | 0.00 | 0.00 | 0.00 | 96 | 1020.0 |
| 20260506142129 | 52 | 195 | 1.7 | 3.5 | 0.00 | 0.00 | 0.00 | 95 | 1019.8 |
| 20260506141626 | 52 | 260 | 2.6 | 4.3 | 0.00 | 0.00 | 0.00 | 95 | 1020.0 |
| 20260506141125 | 52 | 90 | 0.9 | 4.3 | 0.00 | 0.00 | 0.00 | 95 | 1019.6 |
| 20260506140622 | 52 | 197 | 1.7 | 2.6 | 0.00 | 0.00 | 0.00 | 95 | 1019.9 |
| 20260506140119 | 52 | 172 | 2.6 | 3.5 | 0.00 | 0.00 | 0.00 | 95 | 1019.6 |
| 20260506135616 | 52 | 135 | 1.7 | 2.6 | 0.00 | 0.00 | 0.00 | 95 | 1019.8 |
| 20260506135112 | 52 | 196 | 2.6 | 3.5 | 0.00 | 0.00 | 0.00 | 95 | 1019.9 |
| 20260506134609 | 52 | 174 | 0.9 | 3.5 | 0.00 | 0.00 | 0.00 | 94 | 1019.8 |
| 20260506134104 | 52 | 180 | 1.7 | 3.5 | 0.00 | 0.00 | 0.00 | 94 | 1019.8 |
| 20260506133602 | 52 | 198 | 3.5 | 3.5 | 0.00 | 0.00 | 0.00 | 94 | 1019.6 |
| 20260506133059 | 52 | 162 | 2.6 | 4.3 | 0.00 | 0.00 | 0.00 | 94 | 1019.8 |
| 20260506132556 | 52 | 111 | 0.9 | 4.3 | 0.00 | 0.00 | 0.00 | 94 | 1019.8 |
| 20260506132053 | 52 | 168 | 1.7 | 3.5 | 0.00 | 0.00 | 0.00 | 94 | 1019.7 |
| 20260506131550 | 53 | 186 | 2.6 | 4.3 | 0.00 | 0.00 | 0.00 | 94 | 1019.6 |
| 20260506131046 | 53 | 201 | 3.5 | 4.3 | 0.00 | 0.00 | 0.00 | 94 | 1019.7 |
| 20260506130543 | 53 | 197 | 3.5 | 6.1 | 0.00 | 0.00 | 0.00 | 93 | 1019.7 |
| 20260506130041 | 53 | 135 | 1.7 | 4.3 | 0.00 | 0.00 | 0.00 | 93 | 1019.0 |
| 20260506125539 | 53 | 191 | 2.6 | 3.5 | 0.00 | 0.00 | 0.00 | 93 | 1019.1 |
| 20260506125037 | 53 | 180 | 2.6 | 4.3 | 0.00 | 0.00 | 0.00 | 93 | 1019.3 |
| 20260506124534 | 53 | 188 | 4.3 | 4.3 | 0.00 | 0.00 | 0.00 | 93 | 1019.3 |
| 20260506124032 | 53 | 180 | 1.7 | 4.3 | 0.00 | 0.00 | 0.00 | 93 | 1019.4 |
| 20260506123529 | 53 | 123 | 1.7 | 2.6 | 0.00 | 0.00 | 0.00 | 93 | 1019.1 |
| 20260506123027 | 53 | 143 | 1.7 | 5.2 | 0.00 | 0.00 | 0.00 | 93 | 1019.3 |
| 20260506122523 | 53 | 189 | 4.3 | 6.1 | 0.00 | 0.00 | 0.00 | 93 | 1019.0 |
| 20260506122022 | 53 | 147 | 1.7 | 4.3 | 0.00 | 0.00 | 0.00 | 93 | 1018.9 |
| 20260506121519 | 53 | 184 | 3.5 | 3.5 | 0.00 | 0.00 | 0.00 | 93 | 1018.8 |
| 20260506121015 | 53 | 178 | 2.6 | 7.0 | 0.00 | 0.00 | 0.00 | 93 | 1019.0 |
| 20260506120513 | 53 | 131 | 1.7 | 3.5 | 0.00 | 0.00 | 0.00 | 93 | 1018.9 |
| 20260506120011 | 53 | 180 | 1.7 | 3.5 | 0.00 | 0.00 | 0.00 | 92 | 1018.9 |
| 20260506115508 | 53 | 177 | 2.6 | 4.3 | 0.00 | 0.00 | 0.00 | 92 | 1019.1 |
| 20260506115007 | 53 | 180 | 1.7 | 5.2 | 0.00 | 0.00 | 0.00 | 92 | 1018.9 |
| 20260506114503 | 53 | 189 | 2.6 | 7.0 | 0.00 | 0.00 | 0.00 | 92 | 1019.0 |
| 20260506114002 | 53 | 201 | 5.2 | 5.2 | 0.00 | 0.00 | 0.00 | 92 | 1018.7 |
| 20260506113459 | 53 | 108 | 1.7 | 4.3 | 0.00 | 0.00 | 0.00 | 92 | 1018.7 |
| 20260506112956 | 53 | 127 | 1.7 | 6.1 | 0.00 | 0.00 | 0.00 | 92 | 1018.6 |
| 20260506112453 | 53 | 86 | 1.7 | 4.3 | 0.00 | 0.00 | 0.00 | 92 | 1018.7 |
| 20260506111950 | 53 | 143 | 2.6 | 4.3 | 0.00 | 0.00 | 0.00 | 92 | 1018.6 |
| 20260506111449 | 53 | 148 | 0.9 | 4.3 | 0.00 | 0.00 | 0.00 | 92 | 1018.5 |
| 20260506110945 | 53 | 135 | 0.0 | 5.2 | 0.00 | 0.00 | 0.00 | 92 | 1018.7 |
| 20260506110443 | 53 | 180 | 1.7 | 5.2 | 0.00 | 0.00 | 0.00 | 92 | 1018.8 |
| 20260506105939 | 53 | 180 | 1.7 | 1.7 | 0.00 | 0.00 | 0.00 | 92 | 1018.6 |
| 20260506105436 | 53 | 157 | 1.7 | 1.7 | 0.00 | 0.00 | 0.00 | 92 | 1018.6 |
| 20260506104933 | 53 | 97 | 0.0 | 2.6 | 0.00 | 0.00 | 0.00 | 92 | 1018.6 |
| 20260506104431 | 53 | 183 | 2.6 | 2.6 | 0.00 | 0.00 | 0.00 | 93 | 1018.5 |
| 20260506103930 | 53 | 124 | 0.0 | 1.7 | 0.00 | 0.00 | 0.00 | 93 | 1018.5 |
| 20260506103427 | 53 | 66 | 0.0 | 1.7 | 0.00 | 0.00 | 0.00 | 93 | 1018.2 |
| 20260506102924 | 53 | 180 | 0.0 | 1.7 | 0.00 | 0.00 | 0.00 | 93 | 1018.4 |
| 20260506102421 | 53 | 173 | 0.0 | 1.7 | 0.00 | 0.00 | 0.00 | 93 | 1018.3 |
| 20260506101918 | 53 | 168 | 0.9 | 3.5 | 0.00 | 0.00 | 0.00 | 93 | 1018.3 |
| 20260506101414 | 53 | 192 | 2.6 | 2.6 | 0.00 | 0.00 | 0.00 | 93 | 1018.3 |
| 20260506100912 | 53 | 156 | 1.7 | 2.6 | 0.00 | 0.00 | 0.00 | 93 | 1018.3 |
| 20260506100410 | 53 | 192 | 2.6 | 3.5 | 0.00 | 0.00 | 0.00 | 92 | 1018.3 |
| 20260506095908 | 53 | 190 | 2.6 | 3.5 | 0.00 | 0.00 | 0.00 | 92 | 1018.3 |
| 20260506095406 | 53 | 195 | 3.5 | 3.5 | 0.00 | 0.00 | 0.00 | 92 | 1018.2 |
| 20260506094902 | 53 | 194 | 3.5 | 4.3 | 0.00 | 0.00 | 0.00 | 92 | 1018.2 |
| 20260506094401 | 53 | 202 | 3.5 | 7.8 | 0.00 | 0.00 | 0.00 | 91 | 1018.1 |
| 20260506093858 | 53 | 196 | 2.6 | 5.2 | 0.00 | 0.00 | 0.00 | 91 | 1017.9 |
| 20260506093356 | 53 | 212 | 4.3 | 7.0 | 0.00 | 0.00 | 0.00 | 91 | 1018.1 |
| 20260506092853 | 53 | 194 | 5.2 | 7.0 | 0.00 | 0.00 | 0.00 | 91 | 1018.1 |
| 20260506092351 | 53 | 228 | 7.0 | 9.6 | 0.00 | 0.00 | 0.00 | 91 | 1017.9 |
| 20260506091847 | 53 | 223 | 2.6 | 5.2 | 0.00 | 0.00 | 0.00 | 91 | 1017.8 |
| 20260506091345 | 53 | 188 | 3.5 | 7.8 | 0.00 | 0.00 | 0.00 | 91 | 1017.8 |
| 20260506090842 | 53 | 152 | 1.7 | 5.2 | 0.00 | 0.00 | 0.00 | 91 | 1017.7 |
| 20260506090340 | 54 | 204 | 5.2 | 7.8 | 0.00 | 0.00 | 0.00 | 91 | 1017.7 |
| 20260506085836 | 54 | 179 | 3.5 | 5.2 | 0.00 | 0.00 | 0.00 | 91 | 1017.8 |
| 20260506085332 | 54 | 180 | 3.5 | 8.7 | 0.00 | 0.00 | 0.00 | 91 | 1017.7 |
| 20260506084829 | 54 | 135 | 2.6 | 6.1 | 0.00 | 0.00 | 0.00 | 91 | 1017.5 |
| 20260506084326 | 54 | 195 | 2.6 | 5.2 | 0.00 | 0.00 | 0.00 | 91 | 1017.5 |
| 20260506083823 | 54 | 204 | 4.3 | 4.3 | 0.00 | 0.00 | 0.00 | 91 | 1017.6 |
| 20260506083320 | 54 | 209 | 1.7 | 5.2 | 0.00 | 0.00 | 0.00 | 90 | 1017.4 |
| 20260506082818 | 54 | 181 | 3.5 | 5.2 | 0.00 | 0.00 | 0.00 | 90 | 1017.4 |
| 20260506082314 | 54 | 197 | 5.2 | 7.0 | 0.00 | 0.00 | 0.00 | 90 | 1017.6 |
| 20260506081810 | 54 | 120 | 0.9 | 6.1 | 0.00 | 0.00 | 0.00 | 90 | 1017.4 |
| 20260506081308 | 54 | 219 | 3.5 | 5.2 | 0.00 | 0.00 | 0.00 | 90 | 1017.4 |
| 20260506080806 | 54 | 183 | 0.0 | 3.5 | 0.00 | 0.00 | 0.00 | 90 | 1017.4 |
| 20260506080302 | 55 | 101 | 1.7 | 4.3 | 0.00 | 0.00 | 0.00 | 90 | 1017.3 |
| 20260506073246 | 55 | 180 | 1.7 | 3.5 | 0.00 | 0.00 | 0.00 | 90 | 1017.1 |
| 20260506072743 | 55 | 109 | 0.0 | 3.5 | 0.00 | 0.00 | 0.00 | 90 | 1017.2 |
| 20260506072241 | 55 | 183 | 2.6 | 2.6 | 0.00 | 0.00 | 0.00 | 89 | 1017.1 |
| 20260506071738 | 55 | 180 | 2.6 | 3.5 | 0.00 | 0.00 | 0.00 | 89 | 1017.0 |
| 20260506071236 | 55 | 186 | 3.5 | 4.3 | 0.00 | 0.00 | 0.00 | 89 | 1017.1 |
| 20260506070733 | 55 | 195 | 3.5 | 4.3 | 0.00 | 0.00 | 0.00 | 89 | 1017.1 |
| 20260506070229 | 55 | 181 | 3.5 | 4.3 | 0.00 | 0.00 | 0.00 | 89 | 1017.1 |